Wind_Speed
32 33 34 35 36 37 37 36 36 36 35 35 35 34 34 34 33 33 32 32 33 33 34 35 36 36 35 36 36 37 37 37 36 37 36 36 36 36
31 31 32 33 35 35 36 36 36 36 35 34 34 34 33 32 31 30 31 32 32 32 33 34 36 38 38 38 39 39 40 39 38 37 36 37 38 38
29 29 30 31 32 33 34 34 34 34 34 33 33 32 31 31 30 29 29 28 30 30 31 33 35 36 37 38 40 42 42 42 41 39 38 39 40 41
28 27 28 28 29 30 31 32 32 32 31 32 31 31 29 29 29 29 27 27 27 28 30 32 32 34 36 37 39 40 42 43 42 41 40 39 38 39
27 26 25 25 27 28 28 29 29 29 30 30 30 29 28 27 28 27 27 27 27 27 27 28 29 31 33 34 35 37 38 39 39 39 39 38 37 38
26 25 23 23 24 25 26 26 26 26 27 27 27 27 27 27 28 28 27 25 24 23 22 23 24 25 26 27 28 30 31 32 33 35 36 36 36 36
26 24 23 22 22 23 24 25 25 25 26 27 28 29 28 27 27 26 25 24 23 21 21 20 20 20 21 22 23 24 26 28 29 31 32 34 35 37
25 24 22 22 23 24 25 24 25 25 26 27 28 28 27 26 25 23 23 22 21 20 18 17 17 17 17 18 19 20 21 23 26 28 30 32 34 37
25 23 23 22 22 23 25 24 24 25 25 25 25 25 24 22 20 20 18 17 15 14 14 14 13 14 14 16 17 19 21 23 25 27 30 32 35 37
24 22 22 23 22 22 22 24 25 24 24 24 24 23 21 19 17 16 14 13 13 12 12 12 13 13 14 15 17 19 21 23 26 28 31 34 36 39
25 23 22 23 24 23 22 23 24 25 23 22 21 19 17 15 14 13 13 12 12 11 11 11 11 11 13 14 16 18 20 22 25 28 31 34 38 41
24 22 22 22 22 22 21 22 23 22 21 19 18 16 15 14 12 12 12 11 10 9 9 9 9 10 11 12 14 16 19 21 24 27 30 33 36 39
23 21 21 22 22 21 21 21 20 19 18 17 16 15 14 13 12 11 10 9 8 8 7 7 7 8 9 11 13 16 19 21 24 26 28 31 33 35
22 21 21 21 21 21 20 20 19 18 17 16 15 14 13 12 11 10 9 8 8 7 6 5 6 7 8 11 13 16 19 21 23 25 27 29 30 32
23 22 21 21 20 19 19 19 19 18 17 16 14 13 13 12 12 11 10 9 8 7 6 5 5 6 8 11 13 16 19 21 23 25 27 28 29 31
24 23 23 22 21 20 20 20 19 18 17 15 14 14 13 13 12 11 10 9 8 6 5 4 5 6 8 11 14 17 19 22 24 25 27 28 29 30
25 25 24 23 22 21 21 20 19 18 17 16 15 14 14 13 12 11 11 10 8 7 6 5 6 7 9 12 15 17 20 22 24 25 27 28 29 30
26 26 25 24 23 22 21 20 19 18 17 16 15 15 14 14 13 12 12 10 9 8 8 8 8 10 11 13 16 18 20 22 24 26 27 28 29 30
28 27 26 24 23 22 21 20 19 18 17 17 16 15 15 15 14 14 13 12 11 10 10 10 11 12 14 15 17 19 21 22 24 26 27 28 29 30
29 28 26 24 23 22 21 20 19 18 18 17 17 16 16 16 15 14 14 13 13 13 13 13 14 15 16 18 19 20 22 23 24 26 27 29 31 31
29 27 26 24 23 21 20 19 18 18 17 17 17 17 17 16 16 16 15 15 15 15 16 16 17 18 20 21 21 22 23 24 25 27 28 30 32 33
30 28 26 24 22 20 19 18 17 17 17 17 17 17 17 18 18 17 17 17 17 18 18 19 20 21 22 23 23 24 24 25 26 27 29 31 33 34
29 27 24 23 21 19 18 17 16 16 16 17 17 17 18 18 19 19 20 19 19 20 21 22 23 23 24 24 25 26 27 28 29 30 31 33 34 35
Wind_Direction
283 276 270 266 263 262 261 261 262 263 262 262 261 261 261 260 260 258 256 255 254 254 251 248 245 243 242 243 241 240 240 240 241 243 244 245 243 243
287 278 272 268 264 262 261 261 261 261 261 261 260 260 259 258 257 257 255 253 253 253 251 248 246 245 243 242 238 237 236 236 238 239 240 240 240 240
289 281 274 269 264 261 259 259 259 259 259 259 258 257 255 253 252 254 254 254 253 252 251 250 249 248 246 243 241 239 236 236 236 236 237 239 239 239
290 283 276 268 262 258 256 255 255 255 255 253 252 251 250 249 250 252 253 252 255 255 253 253 253 253 248 245 244 241 238 238 238 237 238 240 241 241
291 284 276 267 262 257 254 253 251 250 249 248 247 244 244 244 246 249 251 254 256 255 256 256 257 256 252 250 248 245 243 242 242 243 242 243 245 246
289 283 275 266 260 256 252 248 245 243 241 241 241 240 241 244 246 248 250 250 252 255 257 259 257 257 256 255 253 251 250 251 251 252 252 251 252 253
285 279 271 262 258 252 248 243 241 240 239 240 240 241 241 242 243 245 246 250 253 255 257 257 256 256 257 258 258 258 258 257 258 260 261 261 262 261
278 272 266 258 251 248 244 242 241 238 237 238 237 240 242 243 242 243 246 247 248 249 251 251 251 253 256 257 259 261 262 264 265 265 266 267 267 267
271 265 258 255 248 246 243 240 238 236 236 234 235 240 240 239 238 239 238 239 241 243 246 249 252 256 260 264 267 270 272 273 274 274 274 273 272 271
265 259 254 251 248 242 239 239 234 234 235 234 233 234 231 230 230 230 230 233 237 240 243 249 255 261 267 272 275 277 279 280 280 280 280 279 278 276
258 254 248 246 239 235 235 234 234 234 234 229 226 224 221 221 221 225 227 228 230 235 242 250 259 266 273 278 282 285 287 289 289 288 287 285 283 281
248 245 240 236 232 233 231 232 229 225 222 218 215 213 213 214 216 219 221 222 227 233 240 248 258 268 279 286 291 295 299 299 298 297 294 291 288 285
238 235 232 228 228 227 223 219 216 212 210 207 204 202 203 204 206 208 212 217 222 228 233 245 261 276 288 298 304 308 309 309 308 306 304 301 297 293
229 225 221 218 218 215 209 206 205 201 199 197 195 194 196 197 199 202 207 211 213 219 229 245 268 285 299 309 316 319 320 320 319 317 315 312 308 304
219 215 212 209 206 201 197 195 193 191 191 190 189 190 191 192 195 198 200 203 208 213 225 250 277 297 310 319 325 329 331 331 329 328 326 322 318 314
209 206 202 200 196 192 190 189 187 186 185 187 188 189 190 192 194 197 200 202 206 213 225 250 287 310 321 327 332 335 337 338 337 335 333 330 327 322
200 197 194 191 190 189 188 187 186 186 187 189 191 192 192 195 198 200 202 205 212 221 237 264 293 312 321 327 332 335 337 339 340 339 337 334 332 329
192 190 188 187 187 187 186 187 188 190 191 193 194 196 197 199 202 204 207 214 223 234 252 273 291 305 313 320 326 331 334 336 338 339 338 336 334 333
185 184 184 185 186 187 188 190 192 194 195 197 198 201 203 206 209 213 218 226 236 248 262 276 289 298 306 314 321 326 329 332 334 336 336 336 336 335
182 182 183 185 187 189 191 193 195 197 199 201 203 206 210 213 218 223 230 238 248 259 270 281 290 298 304 310 315 319 323 326 328 331 333 335 335 334
181 181 183 185 188 190 193 196 198 201 203 206 210 214 218 223 228 234 241 249 259 269 277 284 291 296 301 306 309 313 317 320 322 326 329 331 333 334
180 182 184 186 188 191 195 198 202 205 209 213 218 223 228 233 238 244 251 258 267 275 282 287 291 295 299 302 305 307 311 314 317 320 324 327 330 331
180 181 183 186 189 192 196 201 206 211 216 221 226 232 237 242 247 253 259 266 273 280 285 288 291 294 296 299 301 304 307 311 315 318 321 324 327 328
Height
5736 5735 5735 5735 5736 5738 5740 5742 5743 5744 5745 5746 5748 5749 5751 5752 5754 5755 5757 5759 5760 5762 5764 5766 5768 5770 5773 5775 5778 5780 5783 5786 5788 5791 5793 5796 5799 5802
5727 5726 5726 5726 5727 5729 5730 5732 5734 5735 5736 5737 5739 5741 5742 5744 5746 5747 5749 5750 5752 5754 5755 5757 5760 5762 5765 5767 5769 5771 5774 5776 5779 5781 5784 5787 5789 5792
5719 5718 5717 5717 5718 5719 5721 5723 5724 5726 5727 5729 5730 5732 5734 5736 5738 5740 5741 5742 5744 5745 5747 5749 5751 5753 5755 5758 5760 5762 5764 5766 5769 5771 5773 5776 5779 5782
5712 5710 5709 5709 5709 5711 5712 5714 5716 5717 5719 5721 5723 5724 5726 5728 5730 5732 5734 5736 5737 5738 5740 5742 5744 5745 5747 5749 5751 5753 5755 5757 5759 5761 5764 5766 5769 5771
5705 5703 5702 5701 5702 5703 5704 5706 5708 5710 5712 5714 5715 5717 5719 5722 5724 5725 5727 5729 5730 5732 5733 5735 5736 5737 5739 5741 5742 5744 5746 5748 5750 5752 5754 5756 5758 5761
5698 5696 5695 5694 5695 5696 5697 5699 5701 5703 5705 5707 5709 5711 5713 5715 5717 5719 5721 5723 5724 5725 5727 5728 5729 5731 5732 5734 5736 5737 5739 5740 5742 5744 5745 5747 5749 5751
5690 5689 5688 5688 5688 5689 5691 5692 5694 5697 5699 5701 5703 5705 5707 5709 5711 5713 5715 5717 5718 5720 5721 5723 5724 5726 5727 5728 5730 5731 5733 5734 5736 5737 5739 5740 5741 5743
5683 5682 5682 5681 5682 5683 5684 5686 5688 5691 5693 5695 5698 5700 5701 5703 5705 5707 5710 5711 5713 5715 5716 5718 5719 5720 5722 5723 5724 5726 5727 5728 5729 5730 5731 5732 5733 5733
5676 5675 5675 5675 5676 5677 5678 5680 5682 5685 5688 5690 5692 5694 5696 5698 5700 5703 5705 5707 5709 5710 5712 5713 5715 5716 5717 5718 5719 5720 5721 5722 5722 5723 5723 5723 5723 5723
5668 5668 5668 5669 5670 5671 5673 5675 5677 5679 5682 5685 5687 5690 5692 5694 5696 5699 5701 5703 5705 5707 5708 5710 5711 5712 5713 5713 5714 5715 5715 5715 5715 5715 5714 5713 5712 5712
5660 5660 5661 5662 5664 5666 5668 5670 5672 5675 5677 5680 5682 5685 5688 5690 5693 5695 5697 5700 5701 5703 5704 5706 5707 5708 5708 5709 5709 5709 5709 5708 5707 5706 5705 5703 5701 5699
5652 5653 5655 5656 5658 5660 5663 5665 5668 5670 5673 5676 5679 5682 5685 5687 5690 5692 5695 5697 5698 5700 5701 5703 5703 5704 5705 5705 5704 5704 5703 5702 5700 5698 5696 5693 5690 5687
5644 5646 5648 5650 5653 5656 5658 5661 5664 5667 5670 5673 5676 5679 5682 5685 5687 5690 5692 5694 5696 5697 5699 5700 5700 5701 5701 5701 5700 5698 5697 5695 5692 5690 5686 5683 5679 5675
5638 5640 5643 5646 5649 5652 5655 5658 5662 5665 5668 5671 5674 5677 5680 5683 5685 5687 5690 5692 5693 5695 5696 5697 5697 5697 5697 5696 5695 5693 5691 5688 5685 5681 5677 5673 5669 5664
5632 5635 5639 5642 5646 5649 5652 5656 5660 5663 5666 5669 5673 5676 5678 5681 5683 5686 5688 5689 5691 5692 5693 5694 5694 5694 5693 5692 5691 5688 5685 5682 5678 5674 5669 5664 5660 5655
5626 5631 5635 5639 5643 5647 5651 5655 5658 5662 5665 5668 5671 5674 5677 5679 5682 5684 5686 5687 5689 5690 5691 5691 5691 5690 5689 5688 5686 5683 5680 5676 5672 5667 5663 5658 5653 5647
5622 5627 5632 5636 5641 5645 5650 5653 5657 5660 5664 5667 5670 5672 5675 5677 5680 5682 5684 5685 5687 5687 5688 5688 5687 5686 5685 5684 5681 5679 5675 5671 5667 5662 5658 5653 5647 5641
5618 5624 5629 5634 5639 5644 5648 5652 5656 5659 5662 5665 5668 5670 5673 5675 5678 5680 5681 5683 5684 5684 5685 5684 5684 5683 5681 5679 5677 5674 5670 5667 5663 5658 5653 5648 5642 5636
5615 5622 5627 5633 5638 5642 5647 5650 5654 5657 5661 5663 5666 5669 5671 5673 5676 5677 5679 5680 5681 5681 5681 5680 5680 5678 5677 5675 5672 5669 5666 5662 5658 5654 5649 5643 5637 5631
5613 5620 5626 5631 5636 5641 5645 5649 5652 5656 5659 5661 5664 5667 5669 5671 5673 5675 5676 5677 5677 5677 5676 5676 5675 5673 5672 5670 5667 5664 5661 5657 5653 5649 5644 5638 5632 5626
5612 5619 5624 5630 5635 5640 5644 5647 5651 5654 5657 5659 5662 5664 5667 5668 5670 5671 5672 5673 5673 5672 5672 5671 5669 5668 5666 5664 5661 5658 5655 5652 5647 5643 5638 5633 5627 5620
5611 5617 5623 5628 5633 5638 5642 5645 5649 5652 5654 5657 5660 5662 5664 5665 5666 5667 5668 5668 5668 5667 5666 5665 5663 5662 5660 5657 5655 5652 5649 5645 5641 5637 5632 5627 5621 5614
5610 5616 5622 5627 5632 5636 5640 5643 5646 5649 5652 5654 5657 5658 5660 5661 5662 5662 5663 5662 5662 5661 5660 5658 5657 5655 5653 5650 5648 5645 5641 5638 5634 5630 5626 5621 5615 5609